CP2083 SLET-SLCP

Flight info

Callsign CP2083
Flight time 0h 42m
Altitude 4000
Route SLET SLCP
Aircraft C206/L-V/N

Departure

Time 2026-05-07 19:07
Airport El Trompillo Airport (SLET)

Arrival

Time 2026-05-07 19:50
Airport Concepción Airport (SLCP)
Time Latitude Longitude Altitude Speed Heading
2026-05-07 18:50 -17.80019 -63.17892 1375 ft 0 kts 166°
2026-05-07 18:58 -17.80020 -63.17892 1374 ft 0 kts 166°
2026-05-07 18:58 -17.80022 -63.17892 1375 ft 0 kts 166°
2026-05-07 18:59 -17.80053 -63.17878 1375 ft 3 kts 123°
2026-05-07 18:59 -17.80053 -63.17846 1375 ft 5 kts 82°
2026-05-07 18:59 -17.80074 -63.17785 1375 ft 12 kts 110°
2026-05-07 18:59 -17.80111 -63.17714 1375 ft 9 kts 160°
2026-05-07 19:00 -17.80180 -63.17688 1375 ft 12 kts 160°
2026-05-07 19:00 -17.80268 -63.17668 1375 ft 14 kts 173°
2026-05-07 19:00 -17.80353 -63.17636 1375 ft 13 kts 145°
2026-05-07 19:00 -17.80436 -63.17576 1375 ft 16 kts 145°
2026-05-07 19:01 -17.80537 -63.17502 1374 ft 19 kts 144°
2026-05-07 19:01 -17.80650 -63.17417 1375 ft 21 kts 145°
2026-05-07 19:01 -17.80780 -63.17339 1374 ft 22 kts 152°
2026-05-07 19:01 -17.80898 -63.17265 1374 ft 12 kts 157°
2026-05-07 19:02 -17.80916 -63.17267 1375 ft 0 kts 208°
2026-05-07 19:02 -17.80948 -63.17286 1374 ft 12 kts 195°
2026-05-07 19:02 -17.81035 -63.17227 1375 ft 22 kts 143°
2026-05-07 19:03 -17.81181 -63.17116 1375 ft 30 kts 143°
2026-05-07 19:03 -17.81298 -63.17026 1375 ft 33 kts 144°
2026-05-07 19:03 -17.81489 -63.16882 1375 ft 34 kts 144°
2026-05-07 19:03 -17.81715 -63.16727 1375 ft 22 kts 159°
2026-05-07 19:04 -17.81780 -63.16715 1375 ft 10 kts 176°
2026-05-07 19:04 -17.81795 -63.16705 1375 ft 0 kts 98°
2026-05-07 19:04 -17.81795 -63.16702 1375 ft 4 kts 96°
2026-05-07 19:05 -17.81765 -63.16658 1375 ft 10 kts 337°
2026-05-07 19:05 -17.81725 -63.16708 1374 ft 4 kts 325°
2026-05-07 19:06 -17.81585 -63.16819 1375 ft 68 kts 323°
2026-05-07 19:06 -17.81041 -63.17225 1476 ft 111 kts 324°
2026-05-07 19:07 -17.80360 -63.17724 1651 ft 131 kts 325°
2026-05-07 19:07 -17.79531 -63.18221 1829 ft 142 kts 339°
2026-05-07 19:07 -17.78566 -63.18341 2129 ft 141 kts
2026-05-07 19:07 -17.77614 -63.18173 2473 ft 137 kts 12°
2026-05-07 19:08 -17.76771 -63.17980 2639 ft 145 kts 13°
2026-05-07 19:08 -17.75777 -63.17714 2764 ft 159 kts 14°
2026-05-07 19:08 -17.74672 -63.17441 2849 ft 167 kts 13°
2026-05-07 19:09 -17.73519 -63.17207 2961 ft 168 kts
2026-05-07 19:09 -17.72355 -63.17036 3046 ft 170 kts
2026-05-07 19:09 -17.71200 -63.16843 3110 ft 171 kts 11°
2026-05-07 19:09 -17.70034 -63.16548 3091 ft 170 kts 15°
2026-05-07 19:10 -17.68902 -63.16181 2968 ft 175 kts 18°
2026-05-07 19:10 -17.67756 -63.15744 2986 ft 167 kts 20°
2026-05-07 19:10 -17.66697 -63.15442 3281 ft 155 kts 12°
2026-05-07 19:10 -17.65633 -63.15240 3532 ft 152 kts
2026-05-07 19:11 -17.64596 -63.15080 3772 ft 151 kts
2026-05-07 19:11 -17.63539 -63.14924 3920 ft 156 kts
2026-05-07 19:11 -17.62497 -63.14533 3993 ft 161 kts 27°
2026-05-07 19:11 -17.61532 -63.13908 4004 ft 165 kts 34°
2026-05-07 19:12 -17.60587 -63.13209 4002 ft 167 kts 36°
2026-05-07 19:12 -17.59645 -63.12486 4001 ft 168 kts 36°
2026-05-07 19:12 -17.58707 -63.11759 4000 ft 168 kts 36°
2026-05-07 19:12 -17.57773 -63.11033 4000 ft 168 kts 36°
2026-05-07 19:13 -17.56820 -63.10294 4000 ft 169 kts 36°
2026-05-07 19:13 -17.55872 -63.09559 4001 ft 172 kts 36°
2026-05-07 19:13 -17.54901 -63.08805 4002 ft 175 kts 36°
2026-05-07 19:13 -17.53918 -63.08043 4001 ft 176 kts 36°
2026-05-07 19:14 -17.52930 -63.07277 4000 ft 177 kts 36°
2026-05-07 19:14 -17.51947 -63.06515 4000 ft 177 kts 36°
2026-05-07 19:14 -17.50952 -63.05744 4000 ft 177 kts 36°
2026-05-07 19:14 -17.49966 -63.04980 4000 ft 177 kts 36°
2026-05-07 19:15 -17.48973 -63.04211 4000 ft 177 kts 36°
2026-05-07 19:15 -17.47980 -63.03442 4000 ft 177 kts 36°
2026-05-07 19:15 -17.46996 -63.02680 4000 ft 177 kts 36°
2026-05-07 19:15 -17.46009 -63.01916 4000 ft 177 kts 36°
2026-05-07 19:16 -17.45022 -63.01152 4000 ft 177 kts 36°
2026-05-07 19:16 -17.44036 -63.00388 4000 ft 177 kts 36°
2026-05-07 19:16 -17.43047 -62.99623 4000 ft 177 kts 36°
2026-05-07 19:16 -17.42058 -62.98857 4000 ft 177 kts 36°
2026-05-07 19:17 -17.41072 -62.98095 4000 ft 177 kts 36°
2026-05-07 19:17 -17.40081 -62.97328 4000 ft 177 kts 36°
2026-05-07 19:17 -17.39095 -62.96566 4000 ft 177 kts 36°
2026-05-07 19:17 -17.38101 -62.95796 4000 ft 177 kts 36°
2026-05-07 19:18 -17.37107 -62.95028 4000 ft 177 kts 36°
2026-05-07 19:18 -17.36123 -62.94267 4000 ft 177 kts 36°
2026-05-07 19:18 -17.35130 -62.93499 4000 ft 177 kts 36°
2026-05-07 19:18 -17.34143 -62.92737 4000 ft 177 kts 36°
2026-05-07 19:19 -17.33145 -62.91965 4000 ft 177 kts 36°
2026-05-07 19:19 -17.32168 -62.91211 4000 ft 177 kts 36°
2026-05-07 19:19 -17.31174 -62.90443 4000 ft 177 kts 36°
2026-05-07 19:19 -17.30188 -62.89680 4000 ft 177 kts 36°
2026-05-07 19:20 -17.29199 -62.88917 4000 ft 177 kts 36°
2026-05-07 19:20 -17.28210 -62.88152 4000 ft 177 kts 36°
2026-05-07 19:20 -17.27213 -62.87383 4000 ft 177 kts 36°
2026-05-07 19:20 -17.26221 -62.86617 4000 ft 177 kts 36°
2026-05-07 19:21 -17.25232 -62.85853 4000 ft 177 kts 36°
2026-05-07 19:21 -17.24246 -62.85093 4000 ft 177 kts 36°
2026-05-07 19:21 -17.23260 -62.84331 4000 ft 177 kts 36°
2026-05-07 19:21 -17.22268 -62.83566 4000 ft 177 kts 36°
2026-05-07 19:22 -17.21269 -62.82795 3995 ft 177 kts 36°
2026-05-07 19:22 -17.20285 -62.82034 4003 ft 176 kts 36°
2026-05-07 19:22 -17.19305 -62.81279 4008 ft 176 kts 36°
2026-05-07 19:22 -17.18317 -62.80518 4002 ft 177 kts 36°
2026-05-07 19:23 -17.17331 -62.79758 4000 ft 177 kts 36°
2026-05-07 19:23 -17.16328 -62.78984 4000 ft 177 kts 36°
2026-05-07 19:23 -17.15342 -62.78224 4000 ft 177 kts 36°
2026-05-07 19:23 -17.14351 -62.77460 4000 ft 177 kts 36°
2026-05-07 19:24 -17.13359 -62.76696 4000 ft 177 kts 36°
2026-05-07 19:24 -17.12376 -62.75938 4000 ft 177 kts 36°
2026-05-07 19:24 -17.11378 -62.75169 4000 ft 177 kts 36°
2026-05-07 19:24 -17.10384 -62.74403 4000 ft 177 kts 36°
2026-05-07 19:25 -17.09400 -62.73645 4000 ft 177 kts 36°
2026-05-07 19:25 -17.08404 -62.72878 4000 ft 177 kts 36°
2026-05-07 19:25 -17.07414 -62.72116 4000 ft 177 kts 36°
2026-05-07 19:25 -17.06430 -62.71358 4000 ft 177 kts 36°
2026-05-07 19:26 -17.05430 -62.70588 4000 ft 177 kts 36°
2026-05-07 19:26 -17.04443 -62.69828 4000 ft 177 kts 36°
2026-05-07 19:26 -17.03440 -62.69056 4000 ft 177 kts 36°
2026-05-07 19:26 -17.02454 -62.68297 4000 ft 177 kts 36°
2026-05-07 19:27 -17.01455 -62.67529 4000 ft 177 kts 36°
2026-05-07 19:27 -17.00466 -62.66767 4000 ft 177 kts 36°
2026-05-07 19:27 -16.99480 -62.66009 4000 ft 177 kts 36°
2026-05-07 19:27 -16.98484 -62.65243 4000 ft 177 kts 36°
2026-05-07 19:28 -16.97487 -62.64476 4000 ft 177 kts 36°
2026-05-07 19:28 -16.96493 -62.63712 4000 ft 177 kts 36°
2026-05-07 19:28 -16.95499 -62.62948 4000 ft 177 kts 36°
2026-05-07 19:28 -16.94516 -62.62192 4000 ft 177 kts 36°
2026-05-07 19:29 -16.93516 -62.61423 4000 ft 177 kts 36°
2026-05-07 19:29 -16.92531 -62.60666 4000 ft 177 kts 36°
2026-05-07 19:29 -16.91527 -62.59895 4000 ft 177 kts 36°
2026-05-07 19:29 -16.90546 -62.59141 4000 ft 177 kts 36°
2026-05-07 19:30 -16.89545 -62.58372 4000 ft 177 kts 36°
2026-05-07 19:30 -16.88554 -62.57611 4000 ft 177 kts 36°
2026-05-07 19:30 -16.87561 -62.56849 4000 ft 177 kts 36°
2026-05-07 19:30 -16.86575 -62.56091 4000 ft 177 kts 36°
2026-05-07 19:31 -16.85571 -62.55321 4000 ft 177 kts 36°
2026-05-07 19:31 -16.84589 -62.54566 4000 ft 177 kts 36°
2026-05-07 19:31 -16.83588 -62.53798 4000 ft 177 kts 36°
2026-05-07 19:31 -16.82603 -62.53042 4000 ft 177 kts 36°
2026-05-07 19:32 -16.81612 -62.52282 4000 ft 177 kts 36°
2026-05-07 19:32 -16.80614 -62.51516 4000 ft 177 kts 36°
2026-05-07 19:32 -16.79622 -62.50755 4000 ft 177 kts 36°
2026-05-07 19:32 -16.78629 -62.49993 4000 ft 177 kts 36°
2026-05-07 19:33 -16.77631 -62.49228 4000 ft 177 kts 36°
2026-05-07 19:33 -16.76642 -62.48469 4000 ft 177 kts 36°
2026-05-07 19:33 -16.75649 -62.47708 4000 ft 177 kts 36°
2026-05-07 19:33 -16.74651 -62.46943 4000 ft 177 kts 36°
2026-05-07 19:34 -16.73663 -62.46186 4000 ft 177 kts 36°
2026-05-07 19:34 -16.72671 -62.45426 4000 ft 177 kts 36°
2026-05-07 19:34 -16.71674 -62.44662 4000 ft 177 kts 36°
2026-05-07 19:34 -16.70685 -62.43903 4000 ft 177 kts 36°
2026-05-07 19:35 -16.70013 -62.43389 4000 ft 177 kts 36°
2026-05-07 19:35 -16.69025 -62.42632 4000 ft 177 kts 36°
2026-05-07 19:35 -16.68024 -62.41865 4000 ft 177 kts 36°
2026-05-07 19:35 -16.67044 -62.41114 4000 ft 177 kts 36°
2026-05-07 19:36 -16.66046 -62.40350 4000 ft 177 kts 36°
2026-05-07 19:36 -16.65047 -62.39586 4000 ft 177 kts 36°
2026-05-07 19:36 -16.64052 -62.38824 4000 ft 177 kts 36°
2026-05-07 19:36 -16.63058 -62.38063 4000 ft 177 kts 36°
2026-05-07 19:37 -16.62061 -62.37300 4000 ft 177 kts 36°
2026-05-07 19:37 -16.61071 -62.36542 4000 ft 177 kts 36°
2026-05-07 19:37 -16.60087 -62.35789 4000 ft 177 kts 36°
2026-05-07 19:37 -16.59087 -62.35024 4000 ft 177 kts 36°
2026-05-07 19:38 -16.58085 -62.34258 4000 ft 177 kts 36°
2026-05-07 19:38 -16.57098 -62.33503 4000 ft 177 kts 36°
2026-05-07 19:38 -16.56105 -62.32744 4000 ft 177 kts 36°
2026-05-07 19:38 -16.55105 -62.31979 4000 ft 177 kts 36°
2026-05-07 19:39 -16.54117 -62.31224 4000 ft 177 kts 36°
2026-05-07 19:39 -16.53128 -62.30468 4000 ft 177 kts 36°
2026-05-07 19:39 -16.52122 -62.29699 4000 ft 177 kts 36°
2026-05-07 19:39 -16.51140 -62.28949 4000 ft 177 kts 36°
2026-05-07 19:40 -16.50135 -62.28181 4000 ft 177 kts 36°
2026-05-07 19:40 -16.49144 -62.27424 4000 ft 177 kts 36°
2026-05-07 19:40 -16.48149 -62.26664 4000 ft 177 kts 36°
2026-05-07 19:40 -16.47152 -62.25902 4000 ft 177 kts 36°
2026-05-07 19:41 -16.46156 -62.25142 4000 ft 177 kts 36°
2026-05-07 19:41 -16.45171 -62.24390 4000 ft 177 kts 36°
2026-05-07 19:41 -16.44171 -62.23627 4000 ft 177 kts 36°
2026-05-07 19:41 -16.43177 -62.22868 4000 ft 177 kts 36°
2026-05-07 19:42 -16.42178 -62.22106 4000 ft 177 kts 36°
2026-05-07 19:42 -16.41190 -62.21352 4000 ft 177 kts 36°
2026-05-07 19:42 -16.40197 -62.20594 4000 ft 177 kts 36°
2026-05-07 19:42 -16.39200 -62.19834 4000 ft 177 kts 36°
2026-05-07 19:43 -16.38207 -62.19076 4000 ft 177 kts 36°
2026-05-07 19:43 -16.37207 -62.18314 4000 ft 177 kts 36°
2026-05-07 19:43 -16.36209 -62.17553 4000 ft 177 kts 36°
2026-05-07 19:43 -16.35221 -62.16800 4000 ft 177 kts 36°
2026-05-07 19:44 -16.34216 -62.16034 4000 ft 177 kts 36°
2026-05-07 19:44 -16.33228 -62.15281 4000 ft 177 kts 36°
2026-05-07 19:44 -16.32231 -62.14522 4000 ft 177 kts 36°
2026-05-07 19:44 -16.31226 -62.13756 4000 ft 177 kts 36°
2026-05-07 19:45 -16.30235 -62.13001 4000 ft 177 kts 36°
2026-05-07 19:45 -16.29240 -62.12244 4000 ft 177 kts 36°
2026-05-07 19:45 -16.28236 -62.11480 4000 ft 177 kts 36°
2026-05-07 19:45 -16.27240 -62.10723 4000 ft 177 kts 36°
2026-05-07 19:46 -16.26253 -62.09971 4000 ft 177 kts 36°
2026-05-07 19:46 -16.25253 -62.09211 4000 ft 177 kts 36°
2026-05-07 19:46 -16.24265 -62.08461 4000 ft 177 kts 36°
2026-05-07 19:46 -16.23258 -62.07695 4000 ft 177 kts 36°
2026-05-07 19:47 -16.22272 -62.06947 4000 ft 177 kts 36°
2026-05-07 19:47 -16.21275 -62.06191 4000 ft 177 kts 36°
2026-05-07 19:47 -16.20273 -62.05427 3997 ft 177 kts 37°
2026-05-07 19:47 -16.19650 -62.04419 3587 ft 159 kts 73°
2026-05-07 19:48 -16.19269 -62.03437 3296 ft 132 kts 59°
2026-05-07 19:48 -16.18699 -62.02803 2914 ft 113 kts 41°
2026-05-07 19:48 -16.18133 -62.02293 2517 ft 103 kts 42°
2026-05-07 19:48 -16.17611 -62.01846 2199 ft 90 kts 34°
2026-05-07 19:49 -16.17067 -62.01562 1930 ft 94 kts 18°
2026-05-07 19:49 -16.16414 -62.01517 1807 ft 98 kts 355°
2026-05-07 19:49 -16.15798 -62.01642 1674 ft 81 kts 344°
2026-05-07 19:49 -16.15322 -62.01845 1625 ft 64 kts 333°
2026-05-07 19:50 -16.15061 -62.01984 1625 ft 28 kts 332°
2026-05-07 19:50 -16.14911 -62.02069 1625 ft 28 kts 331°
2026-05-07 19:50 -16.14718 -62.02150 1624 ft 24 kts
2026-05-07 19:50 -16.14542 -62.02083 1625 ft 25 kts 20°
2026-05-07 19:51 -16.14504 -62.02076 1625 ft 0 kts 315°